ARIANE 5 R/B (43274 NORAD) Tracking and Keplerian Element Data

This shows tracking and keplerian element data for the satellite.

Feedback or suggestion? Click here.




ElementValue
Catalog43274
NameARIANE 5 R/B
Epoch Orbit66
Epoch Day124.12594906
Epoch Year2018
RAAN338.6264
Inclination2.7196
Eccentricity0.724803
Argument of Perigee196.8629
Mean Anonmoly111.7529
Mean Motion2.31510286
Decay Rate3.01E-06
L11 43274U 18033D 18124.12594906 .00000301 00000-0 18772-3 0 9999
L22 43274 2.7196 338.6264 7248030 196.8629 111.7529 2.31510286 660



Live tracking and technical data element details for ARIANE 5 R/B (NORAD 43274). ARIANE 5 R/B can be tracked NOW for your location showing map with azimuth and elevation plus other details from your city location.







IsCatalogInMostPopularTable: catalog: 43274, numindb: 397
Update: records affected: 1



GetName: 43274 ARIANE 5 R/B

Hit Count: updated at: Thu, 22 May 2025 03:33:44 GMT